Regional Weather Roundup
Issued by NWS Charleston, SC

Current Version | Previous Version | Graphics & Text | Print | Product List | Glossary On
Versions: 1 2 3 4 5 6 7 8 9 10 11 12 13 14 15 16 17 18 19 20 21 22 23 24 25 26 27 28 29 30 31 32 33 34 35 36 37 38 39 40 41 42 43 44 45 46 47 48 49 50
000
ASUS42 KCHS 011012
RWRCHS

REGIONAL WEATHER ROUNDUP
NATIONAL WEATHER SERVICE CHARLESTON SC
600 AM EDT TUE SEP 01 2015

NOTE: "FAIR" INDICATES FEW OR NO CLOUDS BELOW 12,000 FEET WITH NO
SIGNIFICANT WEATHER AND/OR OBSTRUCTIONS TO VISIBILITY.

NOT ALL STATIONS ARE QUALITY CONTROLLED BY THE NATIONAL
WEATHER SERVICE. USE DATA WITH CAUTION...ESPECIALLY
DEWPOINT OBSERVATIONS.

SCZ027-030-031-034>040-042>050-011100-
...SOUTHEAST SOUTH CAROLINA...

CITY           SKY/WX    TMP DP  RH WIND       PRES   REMARKS
N CHARLESTON   PTCLDY    72  70  93 CALM      30.07R
WATERFRONT PRK   N/A     76  73  90 CALM      30.04R
MOUNT PLEASANT LGT RAIN  72  72 100 N3        30.07R
JOHNS ISLAND   FAIR      73  72  94 CALM      30.07R
PINOPOLIS        N/A     79  73  83 VRB3      30.00R
MONCKS CORNER  FAIR      70  68  94 CALM      30.07R FOG
SUMMERVILLE    FAIR      68  68 100 CALM      30.08R
BEAUFORT MCAS  MOCLDY    74  72  93 N5        30.07R FOG
BEAUFORT ARPT  FAIR      73  73 100 CALM      30.06R FOG
HILTON HEAD IS NOT AVBL
WALTERBORO     SUNNY     68  66  94 CALM      30.08R
ALLENDALE      PTSUNNY   68  68 100 CALM      30.07S

...SOUTHERN MIDLANDS AND PEE DEE...

CITY           SKY/WX    TMP DP  RH WIND       PRES   REMARKS
GEORGETOWN     NOT AVBL
KINGSTREE      NOT AVBL
ORANGEBURG     CLEAR     68  66  93 CALM      30.09R FOG
BARNWELL       FAIR      68  66  94 CALM      30.09R
AIKEN          NOT AVBL
MANNING        FAIR      66  66 100 CALM      30.08R
COLUMBIA       CLEAR     70  66  87 CALM      30.07R
SUMTER         CLEAR     69  67  94 CALM      30.06R
FLORENCE       CLEAR     68  66  93 CALM      30.07S
MYRTLE BEACH   CLEAR     70  66  88 CALM      30.09R
N MYRTLE BEACH CLEAR     71  70  96 NW3       30.06S

$$

GAZ063-065-086>088-099>101-113>116-118-119-134>141-150-011100-
...SOUTHEAST GEORGIA...

CITY           SKY/WX    TMP DP  RH WIND       PRES   REMARKS
SAVANNAH ARPT  MOCLDY    73  71  93 CALM      30.06R
HUNTER AAF     CLEAR     74  74 100 CALM      30.04R
FORT STEWART   PTCLDY    73  70  93 CALM      30.05R
STATESBORO     CLEAR     66  32  28 CALM      30.08R
SYLVANIA       SUNNY     68  68 100 CALM      30.09R
CLAXTON        NOT AVBL

...CSRA...CENTRAL AND FAR SOUTHEAST GEORGIA...

CITY           SKY/WX    TMP DP  RH WIND       PRES   REMARKS
THOMSON        CLEAR     66  66 100 CALM      30.14R
AUGUSTA-BUSH   CLEAR     67  66  97 CALM      30.08R
AUGUSTA-DANIEL CLEAR     75  68  78 NW3       30.10R
SWAINSBORO     FAIR     N/A N/A N/A CALM      30.09R
VIDALIA        CLEAR     70  70 100 CALM      30.08R
EASTMAN          N/A     67  67 100 CALM      30.11R FOG
HAZLEHURST     FAIR      73  73 100 CALM      30.07R
ALMA           CLEAR     72  71  97 CALM      30.06S FOG
WAYCROSS       MOCLDY    77  77 100 CALM      30.06R
JESUP          CLOUDY    77  75  94 CALM      30.06S
BAXLEY         FAIR      72  70  94 CALM      30.07R
BRUNSWICK      MOCLDY    73  72  94 CALM      30.06R
SAINT SIMONS   MOCLDY    76  75  97 E8        30.05R THUNDER

$$

SCZ027-028-034-036>038-045-046-048>050-GAZ119-141-011100-
...LAKE AND SUPPLEMENTAL COASTAL OBSERVATIONS...

STATION/POSITION TIME  TEMP    WIND        PRES    WAVE   SWELL
                       AIR SEA DIR/SP/G            HT/PER HT/PER/DIR
                 (UTC) (F)     (DEG/KT/KT) (MB)    (FT/S) (FT/S/D)
UPR LAKE MARION  NOT AVBL
WINYAH BAY       NOT AVBL
LAKE MURRAY      0900   73      CALM  /  1 1017.6F
ACE BASIN NERRS  NOT AVBL
FORT PULASKI     0900   78 83  350/  3/  4 1017.9F
SAPELO ISLAND    0900   76      80/  2     1017.0S

$$

ANZ835-935-AMZ111-154-330-350-352-354-370-450-454-472-011100-
...C-MAN AND BUOY OBSERVATIONS...

STATION/POSITION TIME  TEMP    WIND        PRES    WAVE   SWELL
                       AIR SEA DIR/SP/G            HT/PER HT/PER/DIR
                 (UTC) (F)     (DEG/KT/KT) (MB)    (FT/S) (FT/S/D)
BUOY 41004       0950   81 82  320/  4/  6 1017.4R   3/ 8   3/ 8
BUOY 41008       0950   82 85  110/  4/  6 1017.8R   2/ 8   2/110/ 8
FOLLY BEACH CMAN 0900   74     300/  3/  4 1017.8S
CAPERS NEARSHORE 0908   79     310/  6/  8 1017.8F
FRIPP NEARSHORE  0900   81      10/  4/  4 1017.4F


STATION/POSITION TIME  TEMP    WIND        PRES    WAVE   SWELL
                       AIR SEA DIR/SP/G            HT/PER HT/PER/DIR
                 (UTC) (F)     (DEG/KT/KT) (MB)    (FT/S) (FT/S/D)
5E ST. MARYS GA  0921      85                N/A     2/ 8
FRYING PAN BUOY  0950   81 81  270/ 10/ 12 1018.0R   3/ 6   2/160/ 6
BUOY 41025       0950   80 84  290/  6/  8 1015.7F   4/ 5   3/170/ 5
CAPE LOOKOUT NC  0900   76     310/ 10/ 13 1016.4R
BUOY 41002       0950   84 84  240/ 10/ 10 1018.1S   4/ 7   3/210/ 7
BUOY 41010       0920   84 85  140/  4/  6 1017.6S
ST AUGUSTINE FL  1000   78 83  220/  5/  6 1017.7R


$$


USA.gov is the U.S. government's official web portal to all federal, state and local government web resources and services.